Year,Month,Day,Hour,Minute,Value (Times are PST for temperature in C)
2008,05,17,00,00,15.20
2008,05,17,00,01,15.30
2008,05,17,00,02,15.40
2008,05,17,00,03,15.40
2008,05,17,00,04,15.50
2008,05,17,00,05,15.50
2008,05,17,00,06,15.50
2008,05,17,00,07,15.50
2008,05,17,00,08,15.50
2008,05,17,00,09,15.50
2008,05,17,00,10,15.40
2008,05,17,00,11,15.40
2008,05,17,00,12,15.30
2008,05,17,00,13,15.20
2008,05,17,00,14,15.10
2008,05,17,00,15,15.10
2008,05,17,00,16,15.00
2008,05,17,00,17,15.00
2008,05,17,00,18,15.00
2008,05,17,00,19,15.00
2008,05,17,00,20,15.00
2008,05,17,00,21,14.90
2008,05,17,00,22,14.80
2008,05,17,00,23,14.80
2008,05,17,00,24,14.70
2008,05,17,00,25,14.70
2008,05,17,00,26,14.70
2008,05,17,00,27,14.60
2008,05,17,00,28,14.60
2008,05,17,00,29,14.60
2008,05,17,00,30,14.60
2008,05,17,00,31,14.50
2008,05,17,00,32,14.50
2008,05,17,00,33,14.40
2008,05,17,00,34,14.40
2008,05,17,00,35,14.40
2008,05,17,00,36,14.40
2008,05,17,00,37,14.30
2008,05,17,00,38,14.30
2008,05,17,00,39,14.30
2008,05,17,00,40,14.30
2008,05,17,00,41,14.30
2008,05,17,00,42,14.30
2008,05,17,00,43,14.30
2008,05,17,00,44,14.30
2008,05,17,00,45,14.20
2008,05,17,00,46,14.20
2008,05,17,00,47,14.20
2008,05,17,00,48,14.20
2008,05,17,00,49,14.20
2008,05,17,00,50,14.20
2008,05,17,00,51,14.20
2008,05,17,00,52,14.20
2008,05,17,00,53,14.10
2008,05,17,00,54,14.10
2008,05,17,00,55,14.10
2008,05,17,00,56,14.10
2008,05,17,00,57,14.10
2008,05,17,00,58,14.10
2008,05,17,00,59,14.00
2008,05,17,01,00,14.00
2008,05,17,01,01,14.00
2008,05,17,01,02,13.90
2008,05,17,01,03,13.90
2008,05,17,01,04,13.90
2008,05,17,01,05,13.90
2008,05,17,01,06,13.90
2008,05,17,01,07,13.80
2008,05,17,01,08,13.80
2008,05,17,01,09,13.80
2008,05,17,01,10,13.80
2008,05,17,01,11,13.80
2008,05,17,01,12,13.80
2008,05,17,01,13,13.80
2008,05,17,01,14,13.70
2008,05,17,01,15,13.70
2008,05,17,01,16,13.70
2008,05,17,01,17,13.70
2008,05,17,01,18,13.70
2008,05,17,01,19,13.70
2008,05,17,01,20,13.70
2008,05,17,01,21,13.70
2008,05,17,01,22,13.60
2008,05,17,01,23,13.60
2008,05,17,01,24,13.60
2008,05,17,01,25,13.60
2008,05,17,01,26,13.60
2008,05,17,01,27,13.50
2008,05,17,01,28,13.50
2008,05,17,01,29,13.50
2008,05,17,01,30,13.50
2008,05,17,01,31,13.50
2008,05,17,01,32,13.50
2008,05,17,01,33,13.50
2008,05,17,01,34,13.50
2008,05,17,01,35,13.50
2008,05,17,01,36,13.50
2008,05,17,01,37,13.50
2008,05,17,01,38,13.60
2008,05,17,01,39,13.60
2008,05,17,01,40,13.60
2008,05,17,01,41,13.60
2008,05,17,01,42,13.60
2008,05,17,01,43,13.60
2008,05,17,01,44,13.60
2008,05,17,01,45,13.60
2008,05,17,01,46,13.60
2008,05,17,01,47,13.60
2008,05,17,01,48,13.60
2008,05,17,01,49,13.60
2008,05,17,01,50,13.60
2008,05,17,01,51,13.60
2008,05,17,01,52,13.60
2008,05,17,01,53,13.60
2008,05,17,01,54,13.50
2008,05,17,01,55,13.50
2008,05,17,01,56,13.50
2008,05,17,01,57,13.50
2008,05,17,01,58,13.40
2008,05,17,01,59,13.40
2008,05,17,02,00,13.40
2008,05,17,02,01,13.40
2008,05,17,02,02,13.40
2008,05,17,02,03,13.40
2008,05,17,02,04,13.40
2008,05,17,02,05,13.40
2008,05,17,02,06,13.30
2008,05,17,02,07,13.30
2008,05,17,02,08,13.30
2008,05,17,02,09,13.30
2008,05,17,02,10,13.30
2008,05,17,02,11,13.30
2008,05,17,02,12,13.30
2008,05,17,02,13,13.30
2008,05,17,02,14,13.30
2008,05,17,02,15,13.20
2008,05,17,02,16,13.20
2008,05,17,02,17,13.20
2008,05,17,02,18,13.20
2008,05,17,02,19,13.20
2008,05,17,02,20,13.20
2008,05,17,02,21,13.20
2008,05,17,02,22,13.20
2008,05,17,02,23,13.20
2008,05,17,02,24,13.20
2008,05,17,02,25,13.20
2008,05,17,02,26,13.20
2008,05,17,02,27,13.20
2008,05,17,02,28,13.20
2008,05,17,02,29,13.20
2008,05,17,02,30,13.20
2008,05,17,02,31,13.20
2008,05,17,02,32,13.20
2008,05,17,02,33,13.20
2008,05,17,02,34,13.20
2008,05,17,02,35,13.20
2008,05,17,02,36,13.20
2008,05,17,02,37,13.20
2008,05,17,02,38,13.20
2008,05,17,02,39,13.20
2008,05,17,02,40,13.20
2008,05,17,02,41,13.30
2008,05,17,02,42,13.30
2008,05,17,02,43,13.30
2008,05,17,02,44,13.30
2008,05,17,02,45,13.30
2008,05,17,02,46,13.30
2008,05,17,02,47,13.40
2008,05,17,02,48,13.40
2008,05,17,02,49,13.40
2008,05,17,02,50,13.40
2008,05,17,02,51,13.40
2008,05,17,02,52,13.50
2008,05,17,02,53,13.50
2008,05,17,02,54,13.60
2008,05,17,02,55,13.70
2008,05,17,02,56,13.80
2008,05,17,02,57,13.80
2008,05,17,02,58,13.90
2008,05,17,02,59,14.10
2008,05,17,03,00,14.20
2008,05,17,03,01,14.20
2008,05,17,03,02,14.20
2008,05,17,03,03,14.30
2008,05,17,03,04,14.30
2008,05,17,03,05,14.20
2008,05,17,03,06,14.20
2008,05,17,03,07,14.20
2008,05,17,03,08,14.20
2008,05,17,03,09,14.20
2008,05,17,03,10,14.20
2008,05,17,03,11,14.20
2008,05,17,03,12,14.20
2008,05,17,03,13,14.20
2008,05,17,03,14,14.20
2008,05,17,03,15,14.20
2008,05,17,03,16,14.20
2008,05,17,03,17,14.20
2008,05,17,03,18,14.10
2008,05,17,03,19,14.10
2008,05,17,03,20,14.10
2008,05,17,03,21,14.00
2008,05,17,03,22,14.00
2008,05,17,03,23,13.90
2008,05,17,03,24,13.90
2008,05,17,03,25,13.90
2008,05,17,03,26,13.80
2008,05,17,03,27,13.80
2008,05,17,03,28,13.80
2008,05,17,03,29,13.80
2008,05,17,03,30,13.80
2008,05,17,03,31,13.80
2008,05,17,03,32,13.80
2008,05,17,03,33,13.80
2008,05,17,03,34,13.80
2008,05,17,03,35,13.80
2008,05,17,03,36,13.80
2008,05,17,03,37,13.80
2008,05,17,03,38,13.80
2008,05,17,03,39,13.80
2008,05,17,03,40,13.80
2008,05,17,03,41,13.80
2008,05,17,03,42,13.80
2008,05,17,03,43,13.80
2008,05,17,03,44,13.80
2008,05,17,03,45,13.80
2008,05,17,03,46,13.80
2008,05,17,03,47,13.80
2008,05,17,03,48,13.80
2008,05,17,03,49,13.80
2008,05,17,03,50,13.80
2008,05,17,03,51,13.70
2008,05,17,03,52,13.70
2008,05,17,03,53,13.70
2008,05,17,03,54,13.70
2008,05,17,03,55,13.70
2008,05,17,03,56,13.70
2008,05,17,03,57,13.60
2008,05,17,03,58,13.60
2008,05,17,03,59,13.60
2008,05,17,04,00,13.60
2008,05,17,04,01,13.60
2008,05,17,04,02,13.50
2008,05,17,04,03,13.50
2008,05,17,04,04,13.40
2008,05,17,04,05,13.40
2008,05,17,04,06,13.40
2008,05,17,04,07,13.30
2008,05,17,04,08,13.30
2008,05,17,04,09,13.30
2008,05,17,04,10,13.30
2008,05,17,04,11,13.30
2008,05,17,04,12,13.30
2008,05,17,04,13,13.30
2008,05,17,04,14,13.30
2008,05,17,04,15,13.30
2008,05,17,04,16,13.30
2008,05,17,04,17,13.40
2008,05,17,04,18,13.40
2008,05,17,04,19,13.40
2008,05,17,04,20,13.50
2008,05,17,04,21,13.50
2008,05,17,04,22,13.60
2008,05,17,04,23,13.60
2008,05,17,04,24,13.60
2008,05,17,04,25,13.70
2008,05,17,04,26,13.70
2008,05,17,04,27,13.70
2008,05,17,04,28,13.80
2008,05,17,04,29,13.90
2008,05,17,04,30,14.00
2008,05,17,04,31,14.10
2008,05,17,04,32,14.10
2008,05,17,04,33,14.10
2008,05,17,04,34,14.10
2008,05,17,04,35,14.10
2008,05,17,04,36,14.10
2008,05,17,04,37,14.10
2008,05,17,04,38,14.10
2008,05,17,04,39,14.00
2008,05,17,04,40,14.00
2008,05,17,04,41,14.00
2008,05,17,04,42,14.00
2008,05,17,04,43,13.90
2008,05,17,04,44,13.90
2008,05,17,04,45,13.90
2008,05,17,04,46,13.90
2008,05,17,04,47,14.00
2008,05,17,04,48,14.00
2008,05,17,04,49,14.00
2008,05,17,04,50,14.10
2008,05,17,04,51,14.10
2008,05,17,04,52,14.10
2008,05,17,04,53,14.00
2008,05,17,04,54,14.00
2008,05,17,04,55,13.90
2008,05,17,04,56,13.90
2008,05,17,04,57,13.90
2008,05,17,04,58,13.90
2008,05,17,04,59,13.90
2008,05,17,05,00,13.90
2008,05,17,05,01,13.90
2008,05,17,05,02,13.80
2008,05,17,05,03,13.80
2008,05,17,05,04,13.80
2008,05,17,05,05,13.80
2008,05,17,05,06,13.80
2008,05,17,05,07,13.80
2008,05,17,05,08,13.80
2008,05,17,05,09,13.70
2008,05,17,05,10,13.70
2008,05,17,05,11,13.70
2008,05,17,05,12,13.70
2008,05,17,05,13,13.70
2008,05,17,05,14,13.70
2008,05,17,05,15,13.60
2008,05,17,05,16,13.60
2008,05,17,05,17,13.60
2008,05,17,05,18,13.60
2008,05,17,05,19,13.60
2008,05,17,05,20,13.60
2008,05,17,05,21,13.60
2008,05,17,05,22,13.60
2008,05,17,05,23,13.60
2008,05,17,05,24,13.60
2008,05,17,05,25,13.50
2008,05,17,05,26,13.50
2008,05,17,05,27,13.40
2008,05,17,05,28,13.40
2008,05,17,05,29,13.40
2008,05,17,05,30,13.30
2008,05,17,05,31,13.30
2008,05,17,05,32,13.40
2008,05,17,05,33,13.40
2008,05,17,05,34,13.50
2008,05,17,05,35,13.60
2008,05,17,05,36,13.70
2008,05,17,05,37,13.80
2008,05,17,05,38,13.90
2008,05,17,05,39,14.00
2008,05,17,05,40,14.10
2008,05,17,05,41,14.10
2008,05,17,05,42,14.10
2008,05,17,05,43,14.10
2008,05,17,05,44,14.10
2008,05,17,05,45,14.10
2008,05,17,05,46,14.10
2008,05,17,05,47,14.00
2008,05,17,05,48,13.90
2008,05,17,05,49,13.90
2008,05,17,05,50,13.80
2008,05,17,05,51,13.70
2008,05,17,05,52,13.70
2008,05,17,05,53,13.60
2008,05,17,05,54,13.60
2008,05,17,05,55,13.50
2008,05,17,05,56,13.40
2008,05,17,05,57,13.40
2008,05,17,05,58,13.30
2008,05,17,05,59,13.20
2008,05,17,06,00,13.20
2008,05,17,06,01,13.10
2008,05,17,06,02,13.10
2008,05,17,06,03,13.10
2008,05,17,06,04,13.10
2008,05,17,06,05,13.20
2008,05,17,06,06,13.20
2008,05,17,06,07,13.30
2008,05,17,06,08,13.40
2008,05,17,06,09,13.50
2008,05,17,06,10,13.60
2008,05,17,06,11,13.60
2008,05,17,06,12,13.60
2008,05,17,06,13,13.60
2008,05,17,06,14,13.70
2008,05,17,06,15,13.70
2008,05,17,06,16,13.70
2008,05,17,06,17,13.60
2008,05,17,06,18,13.60
2008,05,17,06,19,13.60
2008,05,17,06,20,13.60
2008,05,17,06,21,13.60
2008,05,17,06,22,13.50
2008,05,17,06,23,13.50
2008,05,17,06,24,13.50
2008,05,17,06,25,13.50
2008,05,17,06,26,13.50
2008,05,17,06,27,13.60
2008,05,17,06,28,13.70
2008,05,17,06,29,13.80
2008,05,17,06,30,13.90
2008,05,17,06,31,14.10
2008,05,17,06,32,14.20
2008,05,17,06,33,14.30
2008,05,17,06,34,14.40
2008,05,17,06,35,14.50
2008,05,17,06,36,14.70
2008,05,17,06,37,14.80
2008,05,17,06,38,14.80
2008,05,17,06,39,14.90
2008,05,17,06,40,14.90
2008,05,17,06,41,14.90
2008,05,17,06,42,15.00
2008,05,17,06,43,15.00
2008,05,17,06,44,15.00
2008,05,17,06,45,15.00
2008,05,17,06,46,15.00
2008,05,17,06,47,15.10
2008,05,17,06,48,15.20
2008,05,17,06,49,15.30
2008,05,17,06,50,15.40
2008,05,17,06,51,15.50
2008,05,17,06,52,15.50
2008,05,17,06,53,15.60
2008,05,17,06,54,15.60
2008,05,17,06,55,15.60
2008,05,17,06,56,15.60
2008,05,17,06,57,15.60
2008,05,17,06,58,15.60
2008,05,17,06,59,15.60
2008,05,17,07,00,15.60
2008,05,17,07,01,15.60
2008,05,17,07,02,15.70
2008,05,17,07,03,15.70
2008,05,17,07,04,15.70
2008,05,17,07,05,15.70
2008,05,17,07,06,15.70
2008,05,17,07,07,15.70
2008,05,17,07,08,15.70
2008,05,17,07,09,15.80
2008,05,17,07,10,15.80
2008,05,17,07,11,15.80
2008,05,17,07,12,15.80
2008,05,17,07,13,15.80
2008,05,17,07,14,15.90
2008,05,17,07,15,15.90
2008,05,17,07,16,15.90
2008,05,17,07,17,15.90
2008,05,17,07,18,16.00
2008,05,17,07,19,16.00
2008,05,17,07,20,16.00
2008,05,17,07,21,16.10
2008,05,17,07,22,16.10
2008,05,17,07,23,16.10
2008,05,17,07,24,16.20
2008,05,17,07,25,16.20
2008,05,17,07,26,16.20
2008,05,17,07,27,16.20
2008,05,17,07,28,16.30
2008,05,17,07,29,16.30
2008,05,17,07,30,16.30
2008,05,17,07,31,16.40
2008,05,17,07,32,16.40
2008,05,17,07,33,16.40
2008,05,17,07,34,16.50
2008,05,17,07,35,16.50
2008,05,17,07,36,16.60
2008,05,17,07,37,16.60
2008,05,17,07,38,16.70
2008,05,17,07,39,16.70
2008,05,17,07,40,16.80
2008,05,17,07,41,16.80
2008,05,17,07,42,16.90
2008,05,17,07,43,16.90
2008,05,17,07,44,17.00
2008,05,17,07,45,17.10
2008,05,17,07,46,17.10
2008,05,17,07,47,17.20
2008,05,17,07,48,17.30
2008,05,17,07,49,17.40
2008,05,17,07,50,17.60
2008,05,17,07,51,17.70
2008,05,17,07,52,17.80
2008,05,17,07,53,18.00
2008,05,17,07,54,18.10
2008,05,17,07,55,18.30
2008,05,17,07,56,18.60
2008,05,17,07,57,18.70
2008,05,17,07,58,18.90
2008,05,17,07,59,19.10
2008,05,17,08,00,19.20
2008,05,17,08,01,19.30
2008,05,17,08,02,19.40
2008,05,17,08,03,19.50
2008,05,17,08,04,19.50
2008,05,17,08,05,19.60
2008,05,17,08,06,19.70
2008,05,17,08,07,19.80
2008,05,17,08,08,19.80
2008,05,17,08,09,19.90
2008,05,17,08,10,19.90
2008,05,17,08,11,20.00
2008,05,17,08,12,20.10
2008,05,17,08,13,20.10
2008,05,17,08,14,20.20
2008,05,17,08,15,20.30
2008,05,17,08,16,20.40
2008,05,17,08,17,20.40
2008,05,17,08,18,20.40
2008,05,17,08,19,20.40
2008,05,17,08,20,20.40
2008,05,17,08,21,20.20
2008,05,17,08,22,20.10
2008,05,17,08,23,20.00
2008,05,17,08,24,20.00
2008,05,17,08,25,20.00
2008,05,17,08,26,19.90
2008,05,17,08,27,19.80
2008,05,17,08,28,19.80
2008,05,17,08,29,19.80
2008,05,17,08,30,19.80
2008,05,17,08,31,19.80
2008,05,17,08,32,19.80
2008,05,17,08,33,19.90
2008,05,17,08,34,19.90
2008,05,17,08,35,19.90
2008,05,17,08,36,19.90
2008,05,17,08,37,19.90
2008,05,17,08,38,19.90
2008,05,17,08,39,19.90
2008,05,17,08,40,19.80
2008,05,17,08,41,19.70
2008,05,17,08,42,19.70
2008,05,17,08,43,19.60
2008,05,17,08,44,19.50
2008,05,17,08,45,19.30
2008,05,17,08,46,19.20
2008,05,17,08,47,19.00
2008,05,17,08,48,18.90
2008,05,17,08,49,18.80
2008,05,17,08,50,18.80
2008,05,17,08,51,18.70
2008,05,17,08,52,18.70
2008,05,17,08,53,18.70
2008,05,17,08,54,18.80
2008,05,17,08,55,18.90
2008,05,17,08,56,18.90
2008,05,17,08,57,19.00
2008,05,17,08,58,19.00
2008,05,17,08,59,19.10
2008,05,17,09,00,19.10
2008,05,17,09,01,19.20
2008,05,17,09,02,19.30
2008,05,17,09,03,19.40
2008,05,17,09,04,19.50
2008,05,17,09,05,19.60
2008,05,17,09,06,19.70
2008,05,17,09,07,19.80
2008,05,17,09,08,20.00
2008,05,17,09,09,20.20
2008,05,17,09,10,20.30
2008,05,17,09,11,20.40
2008,05,17,09,12,20.50
2008,05,17,09,13,20.50
2008,05,17,09,14,20.50
2008,05,17,09,15,20.50
2008,05,17,09,16,20.40
2008,05,17,09,17,20.50
2008,05,17,09,18,20.50
2008,05,17,09,19,20.50
2008,05,17,09,20,20.40
2008,05,17,09,21,20.40
2008,05,17,09,22,20.40
2008,05,17,09,23,20.40
2008,05,17,09,24,20.40
2008,05,17,09,25,20.40
2008,05,17,09,26,20.50
2008,05,17,09,27,20.60
2008,05,17,09,28,20.60
2008,05,17,09,29,20.50
2008,05,17,09,30,20.50
2008,05,17,09,31,20.40
2008,05,17,09,32,20.40
2008,05,17,09,33,20.40
2008,05,17,09,34,20.40
2008,05,17,09,35,20.50
2008,05,17,09,36,20.50
2008,05,17,09,37,20.50
2008,05,17,09,38,20.50
2008,05,17,09,39,20.50
2008,05,17,09,40,20.50
2008,05,17,09,41,20.50
2008,05,17,09,42,20.50
2008,05,17,09,43,20.50
2008,05,17,09,44,20.40
2008,05,17,09,45,20.40
2008,05,17,09,46,20.20
2008,05,17,09,47,20.10
2008,05,17,09,48,20.10
2008,05,17,09,49,19.90
2008,05,17,09,50,19.70
2008,05,17,09,51,19.50
2008,05,17,09,52,19.30
2008,05,17,09,53,19.30
2008,05,17,09,54,19.20
2008,05,17,09,55,19.10
2008,05,17,09,56,19.10
2008,05,17,09,57,19.10
2008,05,17,09,58,19.10
2008,05,17,09,59,19.10
2008,05,17,10,00,19.10
2008,05,17,10,01,19.20
2008,05,17,10,02,19.20
2008,05,17,10,03,19.20
2008,05,17,10,04,19.20
2008,05,17,10,05,19.20
2008,05,17,10,06,19.30
2008,05,17,10,07,19.30
2008,05,17,10,08,19.30
2008,05,17,10,09,19.40
2008,05,17,10,10,19.40
2008,05,17,10,11,19.50
2008,05,17,10,12,19.50
2008,05,17,10,13,19.50
2008,05,17,10,14,19.60
2008,05,17,10,15,19.60
2008,05,17,10,16,19.50
2008,05,17,10,17,19.40
2008,05,17,10,18,19.40
2008,05,17,10,19,19.40
2008,05,17,10,20,19.40
2008,05,17,10,21,19.50
2008,05,17,10,22,19.50
2008,05,17,10,23,19.60
2008,05,17,10,24,19.70
2008,05,17,10,25,19.70
2008,05,17,10,26,19.70
2008,05,17,10,27,19.70
2008,05,17,10,28,19.70
2008,05,17,10,29,19.80
2008,05,17,10,30,19.90
2008,05,17,10,31,20.00
2008,05,17,10,32,20.10
2008,05,17,10,33,20.20
2008,05,17,10,34,20.30
2008,05,17,10,35,20.40
2008,05,17,10,36,20.50
2008,05,17,10,37,20.50
2008,05,17,10,38,20.60
2008,05,17,10,39,20.70
2008,05,17,10,40,20.80
2008,05,17,10,41,20.80
2008,05,17,10,42,20.80
2008,05,17,10,43,20.90
2008,05,17,10,44,20.90
2008,05,17,10,45,20.90
2008,05,17,10,46,20.90
2008,05,17,10,47,21.00
2008,05,17,10,48,21.10
2008,05,17,10,49,21.20
2008,05,17,10,50,21.30
2008,05,17,10,51,21.40
2008,05,17,10,52,21.40
2008,05,17,10,53,21.40
2008,05,17,10,54,21.50
2008,05,17,10,55,21.50
2008,05,17,10,56,21.50
2008,05,17,10,57,21.40
2008,05,17,10,58,21.40
2008,05,17,10,59,21.30
2008,05,17,11,00,21.30
2008,05,17,11,01,21.20
2008,05,17,11,02,21.20
2008,05,17,11,03,21.10
2008,05,17,11,04,21.10
2008,05,17,11,05,21.10
2008,05,17,11,06,21.20
2008,05,17,11,07,21.20
2008,05,17,11,08,21.30
2008,05,17,11,09,21.30
2008,05,17,11,10,21.30
2008,05,17,11,11,21.30
2008,05,17,11,12,21.30
2008,05,17,11,13,21.30
2008,05,17,11,14,21.40
2008,05,17,11,15,21.40
2008,05,17,11,16,21.40
2008,05,17,11,17,21.40
2008,05,17,11,18,21.30
2008,05,17,11,19,21.30
2008,05,17,11,20,21.30
2008,05,17,11,21,21.40
2008,05,17,11,22,21.40
2008,05,17,11,23,21.30
2008,05,17,11,24,21.30
2008,05,17,11,25,21.20
2008,05,17,11,26,21.00
2008,05,17,11,27,20.90
2008,05,17,11,28,20.90
2008,05,17,11,29,20.80
2008,05,17,11,30,20.80
2008,05,17,11,31,20.70
2008,05,17,11,32,20.70
2008,05,17,11,33,20.70
2008,05,17,11,34,20.60
2008,05,17,11,35,20.50
2008,05,17,11,36,20.40
2008,05,17,11,37,20.40
2008,05,17,11,38,20.40
2008,05,17,11,39,20.40
2008,05,17,11,40,20.30
2008,05,17,11,41,20.30
2008,05,17,11,42,20.30
2008,05,17,11,43,20.30
2008,05,17,11,44,20.30
2008,05,17,11,45,20.20
2008,05,17,11,46,20.20
2008,05,17,11,47,20.20
2008,05,17,11,48,20.20
2008,05,17,11,49,20.20
2008,05,17,11,50,20.20
2008,05,17,11,51,20.20
2008,05,17,11,52,20.20
2008,05,17,11,53,20.20
2008,05,17,11,54,20.10
2008,05,17,11,55,20.10
2008,05,17,11,56,20.10
2008,05,17,11,57,20.20
2008,05,17,11,58,20.20
2008,05,17,11,59,20.10
2008,05,17,12,00,20.20
2008,05,17,12,01,20.20
2008,05,17,12,02,20.20
2008,05,17,12,03,20.30
2008,05,17,12,04,20.30
2008,05,17,12,05,20.30
2008,05,17,12,06,20.30
2008,05,17,12,07,20.30
2008,05,17,12,08,20.30
2008,05,17,12,09,20.20
2008,05,17,12,10,20.20
2008,05,17,12,11,20.10
2008,05,17,12,12,20.10
2008,05,17,12,13,20.00
2008,05,17,12,14,20.00
2008,05,17,12,15,19.90
2008,05,17,12,16,19.90
2008,05,17,12,17,20.00
2008,05,17,12,18,20.00
2008,05,17,12,19,20.10
2008,05,17,12,20,20.10
2008,05,17,12,21,20.10
2008,05,17,12,22,20.20
2008,05,17,12,23,20.20
2008,05,17,12,24,20.20
2008,05,17,12,25,20.20
2008,05,17,12,26,20.20
2008,05,17,12,27,20.20
2008,05,17,12,28,20.20
2008,05,17,12,29,20.20
2008,05,17,12,30,20.30
2008,05,17,12,31,20.30
2008,05,17,12,32,20.30
2008,05,17,12,33,20.40
2008,05,17,12,34,20.40
2008,05,17,12,35,20.50
2008,05,17,12,36,20.50
2008,05,17,12,37,20.60
2008,05,17,12,38,20.60
2008,05,17,12,39,20.70
2008,05,17,12,40,20.80
2008,05,17,12,41,20.80
2008,05,17,12,42,20.80
2008,05,17,12,43,20.90
2008,05,17,12,44,21.00
2008,05,17,12,45,21.00
2008,05,17,12,46,20.90
2008,05,17,12,47,20.90
2008,05,17,12,48,20.90
2008,05,17,12,49,20.90
2008,05,17,12,50,21.00
2008,05,17,12,51,21.00
2008,05,17,12,52,21.10
2008,05,17,12,53,21.10
2008,05,17,12,54,21.10
2008,05,17,12,55,21.10
2008,05,17,12,56,21.20
2008,05,17,12,57,21.20
2008,05,17,12,58,21.20
2008,05,17,12,59,21.20
2008,05,17,13,00,21.20
2008,05,17,13,01,21.30
2008,05,17,13,02,21.30
2008,05,17,13,03,21.20
2008,05,17,13,04,21.10
2008,05,17,13,05,21.10
2008,05,17,13,06,21.10
2008,05,17,13,07,21.10
2008,05,17,13,08,21.10
2008,05,17,13,09,21.10
2008,05,17,13,10,21.10
2008,05,17,13,11,21.10
2008,05,17,13,12,21.10
2008,05,17,13,13,21.10
2008,05,17,13,14,21.20
2008,05,17,13,15,21.20
2008,05,17,13,16,21.20
2008,05,17,13,17,21.20
2008,05,17,13,18,21.30
2008,05,17,13,19,21.30
2008,05,17,13,20,21.40
2008,05,17,13,21,21.50
2008,05,17,13,22,21.50
2008,05,17,13,23,21.60
2008,05,17,13,24,21.70
2008,05,17,13,25,21.80
2008,05,17,13,26,21.80
2008,05,17,13,27,21.90
2008,05,17,13,28,22.00
2008,05,17,13,29,22.00
2008,05,17,13,30,22.00
2008,05,17,13,31,22.00
2008,05,17,13,32,22.00
2008,05,17,13,33,22.10
2008,05,17,13,34,22.20
2008,05,17,13,35,22.20
2008,05,17,13,36,22.20
2008,05,17,13,37,22.20
2008,05,17,13,38,22.10
2008,05,17,13,39,22.10
2008,05,17,13,40,22.10
2008,05,17,13,41,22.10
2008,05,17,13,42,22.10
2008,05,17,13,43,22.10
2008,05,17,13,44,22.20
2008,05,17,13,45,22.20
2008,05,17,13,46,22.20
2008,05,17,13,47,22.30
2008,05,17,13,48,22.40
2008,05,17,13,49,22.50
2008,05,17,13,50,22.50
2008,05,17,13,51,22.60
2008,05,17,13,52,22.60
2008,05,17,13,53,22.70
2008,05,17,13,54,22.70
2008,05,17,13,55,22.70
2008,05,17,13,56,22.60
2008,05,17,13,57,22.50
2008,05,17,13,58,22.50
2008,05,17,13,59,22.40
2008,05,17,14,00,22.40
2008,05,17,14,01,22.30
2008,05,17,14,02,22.30
2008,05,17,14,03,22.30
2008,05,17,14,04,22.30
2008,05,17,14,05,22.30
2008,05,17,14,06,22.20
2008,05,17,14,07,22.20
2008,05,17,14,08,22.10
2008,05,17,14,09,22.00
2008,05,17,14,10,22.00
2008,05,17,14,11,22.00
2008,05,17,14,12,21.90
2008,05,17,14,13,21.80
2008,05,17,14,14,21.80
2008,05,17,14,15,21.70
2008,05,17,14,16,21.80
2008,05,17,14,17,21.80
2008,05,17,14,18,21.80
2008,05,17,14,19,21.80
2008,05,17,14,20,21.80
2008,05,17,14,21,21.80
2008,05,17,14,22,21.80
2008,05,17,14,23,21.80
2008,05,17,14,24,21.80
2008,05,17,14,25,21.80
2008,05,17,14,26,21.80
2008,05,17,14,27,21.80
2008,05,17,14,28,21.80
2008,05,17,14,29,21.80
2008,05,17,14,30,21.80
2008,05,17,14,31,21.80
2008,05,17,14,32,21.80
2008,05,17,14,33,21.80
2008,05,17,14,34,21.70
2008,05,17,14,35,21.70
2008,05,17,14,36,21.70
2008,05,17,14,37,21.80
2008,05,17,14,38,21.80
2008,05,17,14,39,21.80
2008,05,17,14,40,21.70
2008,05,17,14,41,21.70
2008,05,17,14,42,21.70
2008,05,17,14,43,21.70
2008,05,17,14,44,21.80
2008,05,17,14,45,21.80
2008,05,17,14,46,21.90
2008,05,17,14,47,21.90
2008,05,17,14,48,22.10
2008,05,17,14,49,22.20
2008,05,17,14,50,22.30
2008,05,17,14,51,22.40
2008,05,17,14,52,22.50
2008,05,17,14,53,22.60
2008,05,17,14,54,22.70
2008,05,17,14,55,22.80
2008,05,17,14,56,22.90
2008,05,17,14,57,22.90
2008,05,17,14,58,23.00
2008,05,17,14,59,23.10
2008,05,17,15,00,23.20
2008,05,17,15,01,23.20
2008,05,17,15,02,23.30
2008,05,17,15,03,23.30
2008,05,17,15,04,23.30
2008,05,17,15,05,23.30
2008,05,17,15,06,23.30
2008,05,17,15,07,23.40
2008,05,17,15,08,23.40
2008,05,17,15,09,23.30
2008,05,17,15,10,23.40
2008,05,17,15,11,23.40
2008,05,17,15,12,23.50
2008,05,17,15,13,23.60
2008,05,17,15,14,23.80
2008,05,17,15,15,23.90
2008,05,17,15,16,24.00
2008,05,17,15,17,24.00
2008,05,17,15,18,23.90
2008,05,17,15,19,23.80
2008,05,17,15,20,23.80
2008,05,17,15,21,23.80
2008,05,17,15,22,23.80
2008,05,17,15,23,23.90
2008,05,17,15,24,23.80
2008,05,17,15,25,23.70
2008,05,17,15,26,23.60
2008,05,17,15,27,23.60
2008,05,17,15,28,23.60
2008,05,17,15,29,23.60
2008,05,17,15,30,23.70
2008,05,17,15,31,23.70
2008,05,17,15,32,23.80
2008,05,17,15,33,23.90
2008,05,17,15,34,24.10
2008,05,17,15,35,24.10
2008,05,17,15,36,24.10
2008,05,17,15,37,24.10
2008,05,17,15,38,24.00
2008,05,17,15,39,24.10
2008,05,17,15,40,24.10
2008,05,17,15,41,24.10
2008,05,17,15,42,24.20
2008,05,17,15,43,24.30
2008,05,17,15,44,24.30
2008,05,17,15,45,24.30
2008,05,17,15,46,24.30
2008,05,17,15,47,24.30
2008,05,17,15,48,24.30
2008,05,17,15,49,24.30
2008,05,17,15,50,24.30
2008,05,17,15,51,24.40
2008,05,17,15,52,24.50
2008,05,17,15,53,24.60
2008,05,17,15,54,24.70
2008,05,17,15,55,24.80
2008,05,17,15,56,24.90
2008,05,17,15,57,24.90
2008,05,17,15,58,24.90
2008,05,17,15,59,24.90
2008,05,17,16,00,24.70
2008,05,17,16,01,24.60
2008,05,17,16,02,24.50
2008,05,17,16,03,24.40
2008,05,17,16,04,24.40
2008,05,17,16,05,24.30
2008,05,17,16,06,24.40
2008,05,17,16,07,24.40
2008,05,17,16,08,24.40
2008,05,17,16,09,24.40
2008,05,17,16,10,24.50
2008,05,17,16,11,24.50
2008,05,17,16,12,24.50
2008,05,17,16,13,24.40
2008,05,17,16,14,24.30
2008,05,17,16,15,24.20
2008,05,17,16,16,24.10
2008,05,17,16,17,24.10
2008,05,17,16,18,24.00
2008,05,17,16,19,23.80
2008,05,17,16,20,23.80
2008,05,17,16,21,23.80
2008,05,17,16,22,23.90
2008,05,17,16,23,23.90
2008,05,17,16,24,24.00
2008,05,17,16,25,24.10
2008,05,17,16,26,24.20
2008,05,17,16,27,24.30
2008,05,17,16,28,24.40
2008,05,17,16,29,24.50
2008,05,17,16,30,24.60
2008,05,17,16,31,24.70
2008,05,17,16,32,24.80
2008,05,17,16,33,24.90
2008,05,17,16,34,24.90
2008,05,17,16,35,25.00
2008,05,17,16,36,25.00
2008,05,17,16,37,25.10
2008,05,17,16,38,25.10
2008,05,17,16,39,25.20
2008,05,17,16,40,25.30
2008,05,17,16,41,25.30
2008,05,17,16,42,25.40
2008,05,17,16,43,25.30
2008,05,17,16,44,25.30
2008,05,17,16,45,25.30
2008,05,17,16,46,25.50
2008,05,17,16,47,25.70
2008,05,17,16,48,25.80
2008,05,17,16,49,26.00
2008,05,17,16,50,26.20
2008,05,17,16,51,26.50
2008,05,17,16,52,26.80
2008,05,17,16,53,27.00
2008,05,17,16,54,27.20
2008,05,17,16,55,27.30
2008,05,17,16,56,27.40
2008,05,17,16,57,27.50
2008,05,17,16,58,27.60
2008,05,17,16,59,27.80
2008,05,17,17,00,27.90
2008,05,17,17,01,28.20
2008,05,17,17,02,28.40
2008,05,17,17,03,28.50
2008,05,17,17,04,28.70
2008,05,17,17,05,28.80
2008,05,17,17,06,28.90
2008,05,17,17,07,28.90
2008,05,17,17,08,28.90
2008,05,17,17,09,29.00
2008,05,17,17,10,29.00
2008,05,17,17,11,29.00
2008,05,17,17,12,28.90
2008,05,17,17,13,28.80
2008,05,17,17,14,28.80
2008,05,17,17,15,28.80
2008,05,17,17,16,28.70
2008,05,17,17,17,28.60
2008,05,17,17,18,28.50
2008,05,17,17,19,28.50